Weather Roundup
Issued by NWS Chicago, IL

Home | Current Version | Previous Version | Graphics & Text | Print | Product List | Glossary On
Versions: 1 2 3 4 5 6 7 8 9 10 11 12 13 14 15 16 17 18 19 20 21 22 23 24 25 26 27 28 29 30 31 32 33 34 35 36 37 38 39 40 41 42 43 44 45 46 47 48 49 50
992
NZUS59 KLOT 220912
HRRLOT

CHICAGO AREA WEATHER ROUNDUP
NATIONAL WEATHER SERVICE CHICAGO/ROMEOVILLE IL
300 AM CST SUN JAN 22 2017

NOTE: "FAIR" INDICATES FEW OR NO CLOUDS BELOW 12,000 FEET WITH NO
SIGNIFICANT WEATHER AND/OR OBSTRUCTIONS TO VISIBILITY.

* THESE STATIONS ARE NOT UNDER NWS QUALITY CONTROL. THEY ALSO MAY NOT
  REPORT WEATHER SUCH AS PRECIPITATION OR FOG.

ILZ005-006-012>014-019>023-221000-
NORTHEAST ILLINOIS

CITY           SKY/WX    TMP DP  RH WIND       PRES   REMARKS
OHARE          FOG       41  41 100 CALM      29.57F VSB 1/4
MIDWAY         FOG       42  40  92 NW3       29.58F VSB 1
AURORA         FOG       33  31  92 NW3       29.58S VSB 1/4
LANSING*       FOG       37  37 100 CALM      29.60S VSB 1/4
JOLIET*        FOG       41  41 100 CALM      29.59S VSB<1/4
WAUKEGAN       FOG       38  38 100 CALM      29.57S VSB 1/4
DUPAGE AIRPORT FOG       34  32  92 CALM      29.57F VSB 1/4
WHEELING       CLOUDY    41  40  96 CALM      29.59S FOG
KANKAKEE*      FOG       38  37  98 CALM      29.59S VSB 1/2
MORRIS*        FOG       39  39  98 CALM      29.58F VSB 1
LEWIS AIRPORT* FOG       38  38 100 CALM      29.59S VSB 1/4
NORTHERLY ISL    N/A     37  36  96 CALM        N/A
$$

WIZ051-052-058>065-066-070>072-221000-
SOUTHEAST WISCONSIN

CITY           SKY/WX    TMP DP  RH WIND       PRES   REMARKS
MILWAUKEE      CLOUDY    41  38  89 CALM      29.57F
KENOSHA*       FOG       38  38 100 CALM      29.57S VSB 1/4
RACINE*        CLOUDY    37  35  92 CALM      29.59S FOG
WAUKESHA       CLOUDY    37  37 100 SW5       29.58S FOG
WEST BEND      CLOUDY    37  37 100 SW3       29.57S FOG
$$

INZ001>003-010>013-019-020-221000-
NORTHWEST INDIANA

CITY           SKY/WX    TMP DP  RH WIND       PRES   REMARKS
GARY*          HVY SNOW  39  39 100 NE5       29.60S VSB 1/4
MICHIGAN CITY* NOT AVBL
RENSSELAER*    NOT AVBL
VALPARAISO     FOG       36  36 100 N3        29.58F VSB 1/4
$$

LMZ740>746-221000-
SOUTHERN LAKE MICHIGAN

STATION/POSITION TIME  SKY/WX   TEMP WIND        PRES    VSBY
                                AIR  DIR/SP/G
                 (UTC)          (F)  (DEG/KT/KT) (MB)    (MI)
HARRISON CRIB    0840            41   50/  2/  3   N/A
BURNHAM HARBOR   0900            37   CALM  /  3   N/A
CALUMET HARBOR   0848            35   80/  3/  3 1001.5F
BURNS HARBOR     0840            35   60/  7/  8 1003.0S
MICHIGAN CITY    0840            36   10/  9/ 10   N/A
$$

ABBREVIATIONS USED IN REMARKS
   TC - TEMPERATURE IN CELSIUS
  WCI - WIND CHILL INDEX
   HX - HEAT INDEX
  VSB - VISIBILITY
$$




USA.gov is the U.S. government's official web portal to all federal, state and local government web resources and services.